Wind_Speed
9 10 12 15 16 22 20 18 15 10 10 12 12 15 12 10 9 9 10 12 13 14
10 10 8 7 11 17 18 17 15 17 17 15 14 10 8 8 8 9 11 12 13 13
7 8 8 7 7 10 15 17 20 19 14 13 9 7 7 7 8 10 11 10 11 12
7 6 5 5 8 11 13 14 16 14 11 9 7 7 7 7 8 10 11 11 12 12
8 7 7 7 8 8 9 10 10 10 9 7 6 6 6 6 8 10 11 11 11 12
11 10 10 9 9 10 12 12 12 10 8 6 6 6 6 6 8 9 9 9 11 13
14 13 12 10 11 11 11 10 10 9 7 6 6 6 6 7 8 9 9 9 10 11
15 15 15 14 14 13 13 12 11 9 7 6 7 7 7 8 8 9 9 9 8 8
17 17 17 17 16 15 14 13 11 9 8 8 8 8 8 9 8 8 8 8 7 6
19 21 20 18 17 17 17 15 13 11 10 9 9 9 9 8 8 8 8 9 8 7
18 21 22 21 22 20 18 17 15 12 11 10 9 8 7 6 8 8 9 8 9 9
16 19 24 25 24 22 20 18 16 13 12 11 9 9 8 10 9 8 8 9 10 9
17 17 23 28 26 24 22 19 15 12 11 12 11 11 11 11 9 10 10 10 10 9
18 16 18 24 25 25 21 18 17 14 14 15 11 14 13 13 10 12 12 13 12 12
Wind_Direction
298 293 283 263 246 232 229 231 219 246 259 229 243 228 230 243 248 259 263 264 264 267
312 298 289 273 244 235 221 206 212 224 214 223 218 226 243 255 266 267 267 270 271 267
314 311 301 275 239 225 218 210 210 217 209 212 223 234 250 263 279 282 274 271 270 271
313 317 308 275 237 215 210 209 203 191 198 216 222 243 259 277 284 278 275 268 270 272
287 269 245 227 213 204 201 196 204 205 204 214 238 257 271 284 283 283 278 273 270 280
278 263 252 242 227 213 201 197 197 204 215 230 253 266 279 280 281 280 285 286 272 267
285 271 260 242 225 218 211 209 214 219 227 238 250 262 266 269 272 280 287 281 273 276
273 262 251 242 234 224 220 218 219 220 227 247 263 268 269 273 277 275 271 270 273 265
269 253 242 236 230 226 222 219 221 227 237 247 250 250 253 257 262 263 257 255 250 242
278 253 244 234 227 224 220 217 218 223 233 238 237 238 245 249 255 264 246 238 233 220
286 255 239 228 224 219 215 216 220 226 232 231 232 231 235 240 238 247 238 229 218 211
299 265 237 224 222 217 216 218 221 225 224 216 232 231 212 220 232 235 228 218 207 208
306 271 245 228 220 217 217 220 217 220 222 219 228 227 215 228 233 227 224 221 216 218
318 287 261 241 225 219 213 213 214 217 218 216 226 222 218 230 240 231 228 231 228 225
Height
774 777 776 777 778 781 782 786 792 796 795 800 802 806 807 808 809 811 812 814 815 815
774 775 775 775 775 779 781 782 788 792 794 798 800 802 805 806 808 808 810 811 813 813
775 774 774 775 773 776 780 782 785 790 791 796 798 800 802 802 804 806 807 807 810 810
773 771 773 774 774 777 780 783 786 786 790 796 794 798 797 798 801 804 805 806 806 806
774 774 774 775 777 778 780 783 785 788 790 791 792 793 794 796 799 801 802 802 802 801
772 772 773 773 774 777 778 780 783 785 786 787 789 790 791 794 796 798 797 796 798 798
768 769 770 771 772 775 776 777 780 780 781 784 787 788 790 791 793 794 793 793 795 794
768 768 768 769 771 771 773 775 778 779 779 781 783 784 786 788 789 790 791 791 791 790
764 764 764 765 767 769 770 772 773 774 777 780 781 784 785 787 787 787 787 788 788 789
758 758 759 762 763 765 768 769 771 773 776 777 779 781 783 784 784 785 785 785 786 787
753 753 755 757 759 761 763 766 768 770 772 774 776 778 779 781 782 783 784 783 783 785
749 749 750 752 754 757 760 762 764 766 768 770 773 775 777 778 780 780 781 782 782 783
746 745 745 746 748 752 754 758 760 763 765 767 768 771 774 775 777 777 778 780 780 780
743 741 741 743 744 746 749 753 756 758 761 764 765 767 770 771 772 773 775 777 778 778